Theta_e
337 338 338 337 337 336 336 334 331 330 329 333 333 330 332 333 331 330 329 329 328 327 326 326 325 323 322 321 321 321 320 320 320 319 319 318 316 314 311 310 311 316 319 322 323 323 324 326 327 327 328 328 327 327 326 325 326 328 328 326 325 327 326 324 326 328 328 327 325 322 322 323 325 326 325 326 326 326 326 326 326 326 327 326 326
336 337 337 337 337 336 336 336 334 331 327 328 331 330 331 333 332 330 329 330 328 327 325 325 324 322 321 319 317 317 317 318 316 314 314 314 312 309 306 307 311 317 319 320 320 321 321 323 325 326 327 327 327 326 325 325 327 328 328 326 326 328 328 326 327 328 328 327 325 324 324 323 324 325 325 325 325 326 326 326 327 327 327 327 327
336 337 337 337 338 337 337 336 335 333 330 327 327 330 331 332 333 331 330 330 329 327 325 324 324 322 320 317 314 314 314 314 312 309 310 311 310 308 307 307 310 314 317 318 319 319 320 321 324 324 325 326 326 326 326 327 328 328 327 327 327 328 328 328 327 327 328 327 326 327 326 325 325 324 324 325 325 325 325 326 327 327 327 327 327
336 336 337 338 337 337 337 336 335 334 334 330 326 328 330 330 332 331 330 329 329 327 323 323 323 321 319 316 314 313 312 311 310 309 309 310 310 310 309 308 308 311 313 314 315 316 317 319 321 323 323 324 325 325 326 327 328 327 327 327 326 327 328 327 327 327 327 327 327 328 327 326 328 326 325 325 325 325 325 325 326 327 327 327 326
336 336 337 338 337 336 336 335 334 334 335 332 326 326 328 329 331 332 331 330 329 328 323 321 321 319 317 315 313 313 312 311 310 309 309 309 309 309 309 309 309 309 309 310 311 312 314 315 317 319 320 321 322 323 324 325 326 325 326 326 326 326 327 327 327 327 327 327 327 328 327 327 328 327 326 326 325 325 325 324 325 325 325 325 325
336 336 337 338 337 337 336 333 334 334 334 332 328 326 326 327 329 331 332 331 330 329 324 322 321 318 315 313 313 312 311 310 308 307 307 307 307 307 308 310 310 309 308 308 309 311 312 313 314 316 318 319 321 322 322 323 323 323 323 324 325 325 326 326 327 327 327 327 326 327 327 327 327 326 326 327 326 325 326 324 324 324 323 323 324
334 335 337 339 338 337 335 332 332 333 332 331 328 326 326 326 327 330 332 331 331 329 325 321 319 317 315 313 311 310 309 308 308 307 307 307 307 307 309 310 310 310 310 310 311 312 313 314 316 319 320 321 322 322 322 322 321 319 318 319 322 324 325 325 326 326 327 326 327 327 326 326 325 326 326 327 326 325 325 325 325 325 324 323 323
333 335 338 339 338 336 335 333 331 331 331 330 327 324 324 326 327 329 331 332 331 330 325 321 318 316 314 312 309 308 308 308 307 307 307 306 307 308 311 311 310 309 309 311 314 316 316 316 318 321 322 322 322 322 321 320 320 319 317 314 316 321 324 325 325 325 326 326 326 326 326 326 326 326 325 326 326 325 323 323 324 323 324 324 324
333 334 337 339 338 336 335 334 332 331 330 330 328 326 325 327 328 329 331 332 332 330 326 321 318 316 314 311 309 308 308 308 308 307 307 307 306 307 310 312 310 308 309 313 316 317 316 316 317 319 321 321 321 321 321 321 320 318 316 313 314 319 323 325 326 325 325 326 325 325 325 325 325 325 325 324 324 323 321 321 320 320 321 322 323
334 334 336 339 338 336 335 335 334 333 331 331 330 329 326 327 330 330 331 331 331 329 325 320 316 315 314 312 309 309 309 309 309 307 307 306 306 306 308 309 309 308 310 313 315 314 313 312 312 315 318 319 319 318 317 316 313 311 311 312 315 319 322 324 325 325 325 324 324 325 325 325 325 324 324 324 323 322 320 318 318 319 319 320 321
334 335 336 338 338 337 335 335 336 335 332 332 332 329 327 329 330 330 329 330 330 328 323 316 314 315 315 313 311 309 309 309 309 308 307 306 306 305 306 306 307 308 310 313 313 312 310 307 306 308 311 314 313 310 308 306 305 306 310 314 317 321 322 323 324 324 325 323 323 324 324 324 323 322 322 323 322 320 318 317 317 317 318 318 319
333 334 334 336 337 336 335 335 336 335 333 332 331 328 328 330 330 330 329 329 328 327 321 314 314 316 316 316 313 309 309 309 308 307 307 306 305 305 305 305 306 307 310 312 312 311 307 305 305 305 306 307 306 306 305 304 304 305 308 311 313 314 314 315 317 318 322 323 323 324 323 323 322 322 322 322 322 320 318 316 316 316 316 316 318
332 332 332 332 333 334 333 334 334 334 334 332 330 329 329 329 328 328 329 327 326 326 321 313 314 317 317 318 316 313 311 309 308 307 306 306 306 305 306 305 305 307 309 310 310 309 306 305 306 305 305 306 305 306 306 305 305 305 305 306 306 306 306 306 307 309 313 317 318 319 319 319 318 317 316 316 317 317 318 317 316 316 315 315 316
330 330 330 329 329 330 331 332 332 333 332 331 329 329 329 327 326 326 326 326 326 326 320 313 315 318 318 319 319 318 316 310 307 307 307 306 305 306 306 305 305 306 308 309 308 307 305 305 305 305 306 306 305 305 305 305 306 305 305 305 305 305 305 305 305 305 306 307 308 308 309 308 307 307 306 307 307 308 314 317 316 315 315 314 313
328 328 328 329 328 328 328 330 331 331 331 330 328 328 328 327 326 325 325 325 326 326 320 313 315 319 319 321 321 321 319 313 308 307 306 306 306 305 305 305 305 306 307 307 306 306 305 305 305 305 305 305 305 305 305 305 305 305 305 305 305 305 305 305 305 305 305 304 304 304 303 303 303 303 303 303 304 303 307 313 316 315 314 313 312
327 327 328 329 328 327 326 327 329 329 330 328 325 327 328 326 325 324 323 323 324 323 318 314 316 319 320 322 321 321 320 314 308 307 307 306 306 305 305 305 305 305 306 306 306 305 305 305 305 305 305 305 305 304 304 304 304 304 304 304 304 304 304 304 304 304 304 303 303 303 303 303 303 303 303 302 303 303 303 307 313 314 314 313 313
327 327 327 326 326 325 324 325 327 327 329 327 325 327 327 325 324 324 321 321 321 319 315 314 315 316 318 320 320 321 321 314 308 308 307 306 306 306 305 305 305 305 305 305 305 305 305 305 305 305 305 305 305 305 304 304 304 304 303 303 303 303 303 303 303 303 303 303 304 304 304 305 305 304 304 304 303 303 302 303 307 311 313 313 313
326 325 323 322 323 323 324 325 326 327 328 327 326 327 327 324 324 325 322 321 321 319 317 316 315 315 317 317 317 319 322 317 309 307 307 307 309 310 309 308 305 305 305 305 305 305 305 305 305 305 305 305 305 305 305 304 304 304 304 304 303 303 303 303 304 304 304 305 305 306 306 306 306 306 305 305 304 304 303 303 303 306 309 312 313
322 321 320 320 320 320 321 323 325 326 327 327 327 328 329 328 327 326 324 324 325 323 321 321 320 320 321 319 318 319 322 318 310 307 307 308 310 312 313 310 307 306 306 306 306 306 306 306 306 306 306 306 306 306 306 305 305 305 304 304 304 304 304 304 304 305 305 305 305 306 306 307 307 307 307 306 305 305 305 304 304 303 305 309 311
319 318 318 317 317 317 318 319 322 326 326 327 328 329 329 330 330 329 328 328 328 325 323 323 323 323 323 321 320 320 322 319 312 308 308 309 309 311 311 310 307 307 307 306 307 307 307 307 306 307 307 307 307 307 307 306 306 306 305 305 305 304 305 304 305 305 305 305 305 305 306 306 307 307 307 307 307 306 306 305 305 304 304 306 307
319 317 317 317 317 318 318 318 322 325 326 326 327 328 328 328 329 330 330 330 329 326 325 324 323 324 323 323 321 321 321 319 314 310 309 309 309 309 310 308 308 308 307 307 307 307 307 307 308 308 308 308 308 308 308 308 307 307 307 306 306 306 305 305 305 305 305 305 305 305 305 306 307 307 307 307 307 307 307 307 307 306 306 306 305
321 321 322 322 322 322 323 323 325 327 327 326 327 327 327 327 328 329 329 329 329 327 326 325 324 324 324 324 323 322 321 319 315 312 310 310 309 309 309 308 307 308 307 307 308 308 309 310 310 311 311 312 312 312 311 311 310 309 309 310 310 309 307 307 306 306 305 306 306 306 306 306 307 307 307 308 308 310 310 311 311 311 311 310 308
325 326 326 326 326 326 326 326 327 327 327 327 327 327 326 327 327 327 327 327 327 327 326 325 325 324 324 324 324 323 321 318 316 315 313 312 310 309 309 308 308 309 308 308 309 311 313 314 314 315 316 316 316 316 316 315 314 313 313 313 313 313 311 310 309 309 308 307 308 308 307 306 307 308 308 309 311 313 313 314 314 314 314 313 312
324 325 325 325 326 326 326 326 326 326 326 326 326 326 325 325 325 326 326 326 326 326 326 326 325 325 324 324 324 323 322 319 316 317 317 317 313 311 311 310 308 309 311 312 312 313 315 317 317 317 318 318 317 317 317 317 317 316 315 316 316 316 315 313 312 312 311 311 311 311 310 308 307 308 309 311 312 313 314 315 314 314 314 314 313
323 324 323 324 324 324 324 325 324 325 325 325 324 324 323 323 323 324 325 325 325 325 325 325 325 325 325 324 323 323 323 321 318 318 318 319 318 315 314 312 309 309 311 313 314 316 317 318 319 318 318 318 317 315 315 316 318 318 317 316 317 317 317 316 315 313 313 313 313 313 313 312 309 308 309 311 312 313 314 315 314 314 314 313 313
322 323 323 323 323 323 323 323 323 323 323 324 323 323 323 323 323 323 324 324 324 324 324 324 324 325 325 324 324 323 323 323 322 321 320 319 319 318 316 313 310 309 311 312 313 315 315 315 318 319 319 318 317 315 315 316 317 317 316 315 315 316 317 318 317 315 315 315 315 315 316 315 313 311 310 310 310 312 313 313 314 314 314 314 314
321 322 322 322 322 322 323 323 323 323 323 323 323 323 324 323 323 323 323 323 323 323 323 323 323 324 324 324 324 324 324 324 323 323 321 319 318 319 318 315 311 310 313 315 314 313 312 312 315 317 318 318 316 315 314 315 316 316 316 315 315 315 316 317 317 317 317 317 317 317 316 316 315 313 312 311 311 311 311 312 312 313 314 314 314
320 321 321 321 322 322 322 322 323 323 323 323 323 323 323 323 323 322 322 322 322 322 322 322 322 323 324 324 324 324 324 322 321 320 320 318 318 319 319 317 314 312 313 316 316 315 313 312 313 314 316 317 316 315 315 316 316 317 317 317 317 317 316 317 317 318 318 318 318 318 317 317 315 313 313 313 311 310 310 309 310 311 312 313 313
316 317 318 319 319 320 320 321 321 322 322 323 323 323 323 323 323 322 322 322 321 321 321 321 321 321 322 323 323 323 323 321 318 317 318 318 318 320 319 318 317 315 314 315 316 316 315 314 313 313 315 315 314 315 316 316 317 317 318 318 318 318 318 318 317 317 317 318 318 318 318 317 315 314 315 315 314 313 312 310 309 310 310 310 311
311 312 313 314 315 316 317 318 318 318 319 320 321 321 321 322 322 322 322 321 321 321 320 320 319 319 320 321 322 322 322 321 319 318 317 317 318 319 319 318 318 317 315 315 317 317 316 315 315 314 314 314 314 314 315 317 317 318 318 317 317 318 317 317 317 317 317 317 317 317 317 317 316 316 317 316 315 315 314 313 312 311 311 311 311
308 308 309 310 311 312 312 313 312 312 313 315 317 318 319 319 320 320 321 321 321 321 320 320 320 320 320 320 320 321 321 321 320 319 318 318 318 319 319 319 318 318 318 318 318 318 317 316 316 316 316 316 315 315 316 316 317 317 318 317 317 318 318 318 318 318 317 317 317 317 317 317 317 317 317 316 315 314 313 314 313 312 312 313 312
307 307 308 308 309 309 309 309 309 309 309 310 313 314 314 314 315 316 317 318 318 319 319 320 320 320 320 320 321 320 320 320 320 320 320 319 319 319 319 319 319 319 319 319 319 319 318 318 317 316 317 317 317 316 316 317 317 318 317 317 317 317 317 318 318 318 318 318 318 318 318 318 317 318 317 316 315 314 313 313 313 313 312 312 311
307 307 307 307 308 308 308 307 308 308 308 308 309 310 310 310 310 311 312 312 313 314 315 315 316 316 318 319 320 320 319 319 319 319 319 318 318 318 319 319 319 319 319 319 319 318 317 316 314 315 316 317 316 317 317 318 317 317 315 314 313 313 313 313 314 315 316 316 317 318 318 318 318 318 317 317 316 315 314 313 313 313 311 310 310
306 306 306 307 307 307 307 307 307 307 307 307 307 308 308 308 308 309 308 308 308 309 310 311 310 311 312 314 316 317 317 318 319 319 319 319 319 318 318 319 318 318 318 317 315 315 315 314 314 315 316 317 317 317 317 317 316 315 314 312 311 309 308 307 307 308 308 309 311 312 314 315 316 317 317 317 317 316 314 313 312 312 310 310 310
303 304 305 306 306 306 306 306 307 307 307 307 307 307 307 307 308 308 307 307 306 307 308 309 309 308 309 309 310 311 312 314 315 316 316 316 317 316 316 316 315 315 315 314 313 314 315 315 315 316 315 315 314 314 314 314 313 312 312 310 308 306 304 303 303 303 304 304 305 306 307 309 311 314 316 316 317 316 313 312 312 310 309 310 310
299 300 302 303 303 304 304 304 304 305 306 307 307 307 306 306 307 307 307 307 307 306 307 307 307 307 307 307 307 307 307 309 310 310 310 311 312 313 313 313 312 312 312 312 313 313 313 313 313 313 312 311 310 310 310 310 310 311 311 309 307 306 305 305 304 303 303 303 303 304 305 306 308 312 314 314 315 315 312 310 310 309 309 309 309
299 299 299 300 300 301 301 301 301 302 303 304 305 306 306 306 306 306 306 306 306 306 306 306 307 306 306 306 306 306 306 306 307 307 307 308 309 309 311 311 310 309 309 309 309 309 309 309 309 309 309 308 309 309 309 309 309 309 309 308 308 307 308 307 306 305 304 303 303 304 307 309 311 313 314 314 314 313 311 310 309 308 308 308 307
299 299 299 299 299 300 300 300 300 300 300 301 301 302 304 305 305 306 306 306 306 306 306 306 306 307 306 306 306 306 306 305 306 306 306 307 307 308 308 308 307 306 306 305 305 304 304 304 304 304 304 304 304 305 305 306 307 307 307 308 308 309 309 309 309 308 307 305 305 305 308 311 312 313 313 313 312 311 309 308 307 307 308 307 306
298 299 299 299 299 299 299 299 299 300 300 300 300 301 301 301 302 303 304 304 305 305 306 305 306 306 306 306 306 306 306 306 306 306 306 307 307 307 307 306 305 304 304 304 303 302 302 302 302 302 301 302 301 301 302 302 303 304 305 307 309 309 310 310 310 309 309 307 306 305 306 307 308 308 309 309 309 308 307 306 307 307 306 305 304
298 298 298 298 298 298 298 298 299 299 299 299 300 300 300 300 300 301 300 301 303 303 304 305 305 306 306 306 306 306 306 306 306 306 306 306 307 307 307 306 305 304 304 304 304 303 303 303 303 302 302 302 302 302 301 301 301 301 302 305 308 310 310 311 311 310 309 308 307 306 306 306 305 306 307 308 307 306 306 306 306 305 304 303 303
297 297 297 297 297 297 297 298 298 298 298 298 298 299 299 299 299 299 299 299 300 300 301 303 304 305 306 306 306 306 306 306 306 306 306 306 306 307 307 307 306 306 306 305 305 304 303 303 303 303 303 303 303 302 302 301 301 300 300 303 307 309 310 311 310 310 309 308 307 307 307 307 306 306 307 306 306 305 305 304 304 303 303 302 301
297 297 297 297 297 297 297 297 297 297 297 297 297 297 298 298 298 298 298 298 298 299 299 300 301 303 304 305 306 306 306 306 306 306 306 306 306 306 307 307 307 307 307 306 305 304 304 304 304 303 303 303 303 303 303 302 301 300 300 303 306 309 310 311 310 309 308 307 306 306 306 306 306 305 305 305 305 304 304 303 303 302 302 302 302
297 297 296 296 296 296 296 296 296 296 296 296 296 296 296 297 297 297 297 297 298 298 298 299 299 301 302 303 304 305 306 306 307 306 306 306 306 306 306 307 306 307 306 305 305 304 304 304 304 304 303 303 303 303 303 303 302 300 301 303 306 309 310 310 309 308 307 306 306 305 305 305 305 304 304 304 304 304 303 303 302 302 302 302 301
296 296 296 296 296 296 296 296 296 296 296 296 296 296 296 296 296 296 296 296 297 297 297 298 298 299 300 301 301 302 303 304 306 306 305 305 305 306 306 306 306 306 305 305 304 305 305 305 304 304 303 303 303 303 303 303 303 302 301 302 304 307 309 308 307 306 306 305 305 304 304 304 304 303 302 302 302 302 302 302 302 302 301 299 297
295 295 295 295 295 295 296 296 296 295 296 296 296 296 296 296 296 296 296 296 296 296 296 297 297 297 298 299 300 301 301 302 303 304 304 304 304 305 305 305 306 305 305 305 305 305 305 305 304 304 304 303 303 303 303 304 304 304 303 301 302 305 307 307 306 305 305 304 305 304 304 303 303 302 302 301 301 302 301 301 300 298 296 295 294
294 295 295 295 295 295 295 295 295 295 296 296 296 296 296 296 296 296 296 296 296 296 296 296 296 297 297 298 299 300 300 301 301 302 303 303 304 304 304 305 305 305 305 305 305 305 304 304 304 304 304 303 303 303 304 305 305 305 304 303 302 304 306 306 305 305 305 305 304 304 303 303 303 302 301 301 301 300 299 297 295 294 294 293 293
294 294 294 294 294 294 295 295 295 295 295 295 295 295 295 295 296 296 296 296 296 296 296 296 296 296 297 297 298 299 300 300 301 301 301 302 303 303 304 304 305 305 305 305 304 304 304 304 304 304 303 302 303 303 304 304 305 305 305 304 303 304 305 306 305 305 305 304 303 303 303 302 302 301 301 300 298 296 295 294 294 293 293 293 293
293 293 293 293 293 293 294 294 294 295 295 295 295 295 295 295 295 295 295 295 295 296 296 296 296 296 296 296 297 298 299 300 300 300 301 301 302 303 304 304 304 305 305 304 305 304 304 305 304 303 302 301 301 301 301 301 303 305 305 304 303 303 304 305 305 304 303 302 302 302 301 301 300 299 297 296 294 294 293 293 293 293 293 293 294
293 293 292 292 292 292 293 293 293 294 294 295 295 295 295 295 295 295 295 294 295 295 295 296 296 296 296 296 296 297 298 299 300 300 301 301 302 303 304 305 305 304 304 304 305 304 304 304 304 302 301 300 300 300 300 302 304 305 305 304 303 304 304 304 304 303 302 301 300 300 300 300 298 295 294 294 294 293 293 293 293 293 293 293 293
292 292 292 292 292 292 292 292 293 293 294 295 296 296 296 295 295 295 295 294 294 294 294 295 295 296 296 296 296 296 296 297 298 299 300 301 301 302 304 304 304 304 304 304 304 304 303 303 303 302 301 300 300 300 301 302 304 304 304 304 304 305 305 304 303 302 301 300 300 299 299 297 295 294 294 294 293 293 293 293 293 293 293 292 292
293 293 292 292 293 293 293 293 294 293 294 295 296 296 296 296 295 295 295 295 295 294 294 294 294 295 296 296 296 296 296 296 297 298 298 299 301 302 302 303 303 303 303 303 303 303 303 303 303 302 301 300 300 300 300 302 303 303 304 304 305 305 304 303 302 300 300 299 299 297 295 294 294 294 293 293 293 293 293 293 293 292 292 292 292
Wind_Speed
14 19 19 19 19 17 18 20 22 23 22 22 23 21 21 22 22 20 19 17 14 11 9 8 6 4 4 4 3 4 5 5 4 3 1 1 1 2 3 3 4 3 3 4 3 3 2 2 3 4 5 6 7 8 9 8 6 5 6 7 7 7 7 8 10 11 10 8 6 6 7 7 6 5 5 5 5 5 5 5 6 7 9 10 11
15 20 19 19 21 19 20 21 23 25 25 23 23 21 21 21 21 19 17 15 12 8 6 6 5 4 3 3 3 4 5 5 4 3 2 2 3 4 4 4 5 4 3 4 4 3 3 3 3 3 3 4 5 7 7 6 5 6 7 7 7 8 8 8 9 10 10 8 5 5 6 8 8 7 6 5 5 6 6 7 8 9 10 10 12
14 18 20 20 20 19 21 22 24 26 25 23 22 21 20 20 20 18 16 13 10 8 6 5 4 4 2 2 3 4 5 5 5 5 5 4 4 5 5 5 5 4 4 4 4 3 3 3 3 3 2 2 3 4 5 5 5 6 6 6 7 8 8 9 9 10 10 9 7 6 5 6 8 9 9 8 7 7 8 9 10 11 11 12 14
13 17 21 21 20 20 21 23 25 26 25 24 21 20 19 19 19 18 16 13 10 8 7 6 5 5 2 2 3 5 6 6 6 6 6 5 5 5 5 5 5 4 4 3 3 3 3 2 1 2 2 1 1 2 3 4 4 5 6 6 7 8 9 8 8 9 10 10 7 6 6 6 6 6 7 9 8 7 8 9 10 11 11 12 13
13 17 22 22 21 21 22 24 26 27 26 23 20 18 17 17 18 18 16 14 11 8 8 8 7 5 1 3 4 5 6 7 6 6 7 6 6 6 6 5 5 4 4 4 3 3 3 2 2 2 1 1 2 2 2 2 3 3 4 5 6 8 9 8 8 9 10 11 9 6 6 5 4 5 5 6 7 7 7 8 9 10 9 10 9
14 17 22 23 21 22 23 25 26 27 25 22 20 18 16 16 17 18 17 15 13 10 9 9 7 4 1 4 5 6 6 7 6 6 7 7 7 7 7 7 7 6 5 5 5 4 4 3 2 1 1 2 2 3 3 3 2 1 1 3 4 6 7 7 8 9 10 11 11 10 8 5 3 4 4 4 5 6 6 6 6 6 6 7 7
14 19 23 23 22 23 24 25 25 24 23 22 20 17 16 16 17 19 19 17 15 13 11 9 8 4 2 3 3 5 6 6 6 6 7 7 7 6 6 7 7 7 6 6 6 6 7 6 5 5 4 4 5 5 5 4 4 3 3 2 2 3 5 5 6 8 9 10 10 11 11 9 6 5 4 4 4 4 4 4 4 3 3 4 4
15 20 25 24 23 22 23 24 23 22 22 22 21 17 15 16 18 19 20 18 16 14 12 10 8 6 4 2 2 4 5 5 6 6 6 6 6 5 5 6 7 7 7 7 8 8 8 7 6 6 6 5 5 5 4 4 3 3 3 3 2 2 3 3 3 5 7 7 8 8 9 9 8 7 6 6 5 5 4 2 1 1 2 3 4
14 18 24 24 23 21 21 22 22 21 21 21 22 19 15 16 18 19 19 19 18 16 13 11 9 7 5 3 1 4 5 5 5 6 6 6 6 5 5 5 7 8 9 9 8 8 7 6 5 4 4 3 3 2 2 1 1 2 2 2 2 3 4 3 3 3 3 4 5 6 7 6 6 5 5 6 6 7 7 4 4 3 1 1 2
16 17 21 23 23 20 19 20 22 22 21 21 22 21 18 17 18 19 19 19 19 17 13 11 10 8 6 4 2 4 5 5 5 5 6 5 6 6 6 6 7 9 10 10 9 8 7 6 4 3 3 1 0 1 2 2 2 1 0 2 3 4 5 5 5 4 4 3 3 5 6 6 6 6 6 7 7 8 9 9 7 5 4 6 6
18 17 19 21 22 20 18 19 21 21 22 21 21 20 18 18 19 20 20 19 18 15 12 12 11 10 8 5 3 5 6 5 5 5 5 5 6 7 7 7 8 10 11 11 10 9 9 8 6 5 4 3 3 3 4 3 1 2 3 4 5 6 6 6 6 5 5 5 6 7 6 5 6 8 7 7 8 9 11 12 11 8 8 10 10
18 17 18 20 22 20 19 19 20 21 22 21 20 18 18 20 20 19 18 16 15 13 12 12 12 11 9 6 4 6 5 4 4 4 5 5 7 7 7 7 8 9 11 11 10 9 10 10 10 9 8 7 7 7 8 9 8 7 6 6 6 6 6 6 5 6 6 6 8 10 9 8 8 8 8 8 8 9 11 13 13 12 11 12 12
16 16 17 18 19 19 19 19 21 22 22 21 18 18 20 19 16 13 13 13 14 13 13 14 15 12 10 7 5 5 5 4 4 4 5 6 7 7 7 8 8 9 10 10 10 9 10 10 10 10 9 9 8 8 9 10 10 10 9 9 8 8 7 7 6 7 7 7 8 8 8 7 7 7 7 6 7 8 10 12 13 12 12 13 12
14 14 14 13 13 15 17 19 21 21 22 21 17 19 20 16 12 12 12 12 13 15 15 15 15 12 10 8 5 5 5 5 3 4 6 7 7 7 7 8 8 8 9 9 9 9 9 9 9 8 8 8 8 8 8 9 9 9 9 9 9 9 9 9 9 9 9 9 9 9 8 8 7 7 7 6 7 8 10 13 14 14 13 11 11
14 14 14 13 10 8 10 16 20 20 21 16 13 17 17 14 15 16 13 13 15 15 16 16 15 12 10 9 7 6 5 5 5 5 6 7 7 8 7 8 8 8 8 8 8 8 8 7 7 7 7 7 7 8 9 9 9 8 8 8 9 10 9 9 10 10 10 10 10 10 10 10 10 10 9 8 7 7 9 12 13 14 13 11 10
15 15 15 14 12 6 4 13 18 18 17 9 15 11 13 14 17 17 11 11 14 15 16 15 14 13 12 11 10 8 7 7 7 7 7 8 8 8 7 8 8 7 7 7 6 6 6 6 6 6 6 7 7 9 9 9 9 8 7 8 8 9 10 10 10 11 11 11 11 10 10 11 12 11 10 9 8 7 7 9 12 12 11 11 10
15 15 13 11 10 8 6 12 16 14 11 7 7 6 11 13 18 19 12 9 11 14 16 16 16 15 13 12 11 10 9 9 10 10 9 9 9 8 8 8 8 7 6 6 6 5 5 5 5 5 6 7 7 8 9 9 9 8 7 7 8 9 9 10 10 11 11 11 11 11 11 12 13 12 11 10 9 9 8 8 9 10 9 9 10
18 17 14 10 8 10 9 9 11 11 11 10 9 10 10 11 16 19 14 9 10 14 17 18 18 16 14 14 14 12 10 9 11 12 11 12 10 8 5 5 6 7 6 6 6 5 5 4 4 5 5 6 7 7 8 8 8 8 7 7 8 8 8 8 10 10 11 11 10 11 11 11 12 12 11 11 10 10 9 8 7 8 9 8 8
21 19 16 11 8 9 6 4 8 10 12 13 14 12 10 9 12 17 14 10 11 15 18 19 18 16 16 16 15 13 11 10 13 14 13 13 10 6 4 4 6 7 6 6 6 6 6 5 5 4 5 5 5 6 6 6 7 7 7 6 6 7 7 7 8 9 9 9 9 9 9 9 10 9 9 10 10 10 10 9 8 7 7 8 8
20 19 17 14 10 9 7 2 9 11 10 14 15 13 9 8 10 13 12 10 11 15 18 19 18 18 18 16 14 14 13 11 14 17 15 13 11 8 7 9 9 7 6 6 6 6 6 5 5 4 4 4 4 4 4 4 5 5 5 4 4 4 5 5 5 5 6 7 6 6 6 6 7 7 6 7 8 8 9 9 9 8 7 7 7
17 18 15 13 11 8 7 5 10 13 10 12 14 11 7 5 6 8 8 8 11 14 18 19 19 19 19 17 15 15 15 13 16 19 16 15 14 10 9 12 12 9 8 8 7 6 5 5 4 4 3 3 3 3 3 3 3 3 4 4 4 3 3 3 3 2 3 4 4 4 4 4 4 5 4 4 5 6 7 8 8 8 7 7 6
13 14 12 10 8 7 6 6 8 8 6 7 9 6 3 3 5 7 8 9 11 13 16 17 18 18 19 18 16 15 16 15 17 19 17 17 15 11 12 15 13 10 9 9 8 6 5 4 4 3 3 3 3 3 2 2 2 2 2 2 3 3 3 2 2 1 1 1 2 2 1 2 2 3 3 4 4 5 6 6 7 7 6 6 6
13 13 13 11 10 9 8 6 5 5 4 5 5 6 7 7 7 8 8 10 11 11 13 14 14 15 17 17 16 16 17 16 17 19 17 17 16 13 13 14 13 11 10 10 9 7 6 4 3 3 3 3 3 3 2 2 2 2 3 3 3 2 2 2 2 1 0 1 1 1 0 1 1 2 2 3 4 4 5 5 5 5 5 5 5
15 15 15 14 13 12 12 11 10 9 8 8 8 9 10 9 8 7 7 7 9 9 10 11 11 13 14 14 14 16 17 17 18 19 17 16 16 15 14 14 14 13 12 12 11 9 8 6 5 5 5 4 4 2 2 2 2 3 4 4 4 4 3 1 2 3 2 1 1 1 1 1 2 2 2 2 2 3 3 4 4 5 5 5 5
17 16 15 14 14 13 12 12 11 10 8 7 7 7 7 7 6 5 5 5 6 6 7 8 9 12 13 14 14 17 18 17 18 19 18 17 16 16 16 16 16 15 15 14 13 11 10 8 7 8 9 8 7 6 6 6 5 6 7 7 5 4 4 4 4 5 5 4 3 2 1 2 3 3 3 2 1 1 1 2 3 5 5 6 7
16 15 15 14 13 13 12 12 11 9 8 7 6 5 5 4 4 4 4 4 4 5 5 7 9 11 14 14 15 17 19 19 19 21 20 19 18 17 17 17 16 16 16 17 16 15 13 13 12 12 12 13 11 10 9 9 9 9 10 11 12 10 8 7 8 8 7 7 6 5 4 3 3 4 4 4 3 3 2 2 3 3 4 5 7
13 13 13 13 12 11 11 11 10 10 9 7 7 7 6 6 5 4 3 3 3 4 5 5 7 10 12 14 14 15 16 18 19 20 21 21 19 17 18 18 17 17 18 18 18 18 18 19 19 17 16 16 17 15 13 13 13 13 13 13 14 13 12 10 10 11 10 10 10 10 9 8 6 5 6 6 5 5 5 5 5 4 4 5 7
12 12 11 11 11 11 11 10 9 9 8 8 8 8 8 8 7 6 5 4 3 2 3 3 4 6 8 10 11 11 12 12 14 14 15 18 19 18 18 18 17 18 19 19 18 18 20 22 22 21 19 18 18 17 16 15 15 14 14 14 14 14 13 12 12 13 13 12 12 13 14 12 10 9 9 9 9 8 8 8 7 7 7 7 7
14 13 12 11 10 10 11 10 10 9 8 7 7 7 8 7 7 7 7 6 6 4 2 1 1 2 5 7 8 8 7 8 10 12 12 13 16 18 19 19 18 17 19 19 17 18 20 22 22 22 23 23 21 19 17 17 16 16 16 15 15 15 15 15 15 16 16 16 15 15 15 15 13 12 13 12 11 11 12 11 9 8 9 9 9
18 17 15 14 13 12 11 10 10 9 9 8 8 8 8 7 7 7 7 6 6 5 4 3 2 1 1 3 4 5 5 5 8 11 12 12 14 17 20 20 19 17 18 18 17 17 18 20 21 22 24 26 26 22 18 17 17 18 18 17 16 15 15 16 17 17 17 17 17 18 17 15 15 15 15 14 14 14 15 14 13 12 12 11 11
22 20 19 17 16 14 13 12 11 10 10 10 10 9 9 8 8 7 7 6 5 5 5 4 3 2 1 1 2 3 5 6 7 10 12 13 14 15 18 19 20 19 19 18 17 17 17 18 19 21 21 21 21 20 18 17 17 18 17 15 14 13 13 14 15 15 16 16 16 17 18 17 17 17 16 15 16 17 17 17 16 14 14 14 14
22 20 19 17 16 15 15 15 14 12 10 10 10 9 8 8 7 7 7 6 5 5 4 3 2 1 1 2 3 5 6 7 9 11 13 14 15 15 16 18 19 18 18 18 17 17 17 17 17 17 16 15 15 15 15 15 14 13 12 10 10 10 10 11 12 13 13 14 14 15 16 17 18 19 19 17 17 18 19 19 19 17 16 16 15
20 19 19 18 16 15 13 13 13 12 11 11 9 7 8 8 8 7 6 6 5 5 4 3 2 1 1 3 4 6 7 8 9 11 12 14 16 16 16 18 19 19 18 18 17 15 14 13 12 10 10 10 10 11 11 11 11 9 8 7 8 8 9 10 11 12 12 12 12 13 14 15 16 17 18 18 18 19 19 18 19 19 18 17 16
19 17 16 16 15 14 12 10 10 10 10 9 8 7 7 6 6 5 5 4 4 4 3 3 3 2 2 2 3 4 6 7 8 8 10 12 14 16 17 18 19 18 17 15 13 11 9 9 8 7 8 8 8 8 9 9 8 8 8 9 9 9 10 10 11 12 12 12 12 13 13 13 13 14 15 17 17 16 15 15 17 18 18 17 17
19 16 14 13 12 11 10 9 8 7 5 5 4 4 4 3 2 1 1 1 1 1 1 1 2 3 3 3 2 1 3 4 5 5 6 8 10 11 12 12 11 10 10 9 8 8 8 7 7 7 7 7 7 7 8 8 8 9 9 9 9 8 7 7 8 8 9 10 11 12 13 14 14 14 14 15 15 13 11 13 16 17 17 18 17
18 16 15 12 11 10 10 9 8 7 5 4 3 3 4 4 2 2 3 3 3 3 3 4 4 4 4 4 4 4 4 3 4 4 4 5 6 7 7 6 6 6 7 7 7 7 7 7 7 8 8 8 8 8 8 9 9 10 9 8 7 5 5 5 6 6 6 7 8 9 10 11 13 14 14 15 15 12 10 12 15 16 17 17 16
13 13 12 11 9 9 8 8 8 8 7 7 5 5 5 5 5 5 4 5 5 6 6 8 8 7 7 6 5 6 6 6 7 8 7 6 6 6 6 6 6 6 6 6 7 7 7 8 8 9 9 10 10 10 10 10 10 10 9 8 6 5 5 6 7 7 7 7 7 7 8 9 10 12 12 13 12 10 9 12 16 17 17 16 16
10 9 8 7 7 6 6 7 7 7 7 7 7 7 7 6 6 7 7 6 6 6 7 9 9 8 8 8 7 7 7 7 8 8 8 7 7 7 7 7 6 6 6 7 7 7 8 8 8 9 9 9 10 10 10 10 10 10 9 8 8 7 7 7 8 8 8 7 6 6 6 6 7 8 8 8 8 8 10 14 16 17 16 15 15
9 9 8 8 8 8 8 8 8 9 9 9 8 8 8 8 8 7 8 9 10 9 9 10 10 9 9 10 10 9 8 8 7 7 7 7 7 7 7 7 7 8 8 7 6 7 7 7 7 7 7 6 6 6 7 8 9 9 10 10 10 9 8 7 7 7 7 6 6 5 4 5 5 5 5 5 7 10 13 15 15 15 14 13 14
10 10 10 10 11 11 12 12 12 13 13 13 13 13 12 12 11 10 10 11 12 12 12 12 11 11 11 11 11 11 10 9 9 9 9 9 9 9 8 8 8 9 10 8 7 7 7 7 7 7 6 6 6 7 8 9 10 10 10 11 10 10 9 7 6 6 6 6 5 4 3 3 3 2 3 4 8 11 13 14 14 13 12 13 14
12 12 12 13 13 14 14 15 15 16 16 17 18 18 17 17 17 15 15 15 15 15 14 14 13 14 15 15 15 14 13 12 11 11 11 11 12 12 11 11 11 12 12 11 9 8 7 7 7 8 8 9 9 10 10 10 11 11 11 11 11 10 9 8 6 5 5 5 4 4 3 3 3 3 3 5 8 10 11 13 13 13 13 14 16
14 15 16 16 17 17 18 18 18 19 19 20 21 22 22 22 21 20 19 20 20 19 18 18 17 17 18 19 20 20 18 17 16 16 16 16 16 15 14 14 14 14 14 13 11 10 9 8 9 10 11 12 12 12 12 12 11 11 10 10 10 10 9 8 6 5 5 4 3 4 4 4 4 4 6 7 9 11 12 13 14 15 16 18 19
18 19 20 21 21 21 22 22 21 22 22 23 24 25 25 25 24 23 23 23 23 23 23 23 22 21 20 20 22 23 24 24 23 23 22 22 22 22 23 23 22 20 18 15 14 14 14 13 13 14 14 14 14 14 13 12 11 10 9 9 9 9 9 8 6 5 5 5 5 5 6 5 6 7 8 10 11 13 14 15 16 18 19 20 21
22 22 23 24 24 25 25 25 24 24 24 25 25 26 27 28 27 26 26 26 26 26 26 26 26 26 26 24 23 23 24 25 26 25 24 23 23 24 26 27 27 27 25 22 21 20 19 17 16 15 14 14 14 14 13 11 10 9 8 8 8 8 9 8 7 6 7 7 7 7 7 7 8 9 10 11 11 13 14 16 17 19 19 20 20
23 23 24 24 25 25 25 25 25 25 25 25 26 27 29 29 29 28 28 29 28 28 28 28 28 28 29 29 28 26 24 24 25 25 25 24 23 23 23 25 26 28 28 27 26 24 22 19 18 16 15 14 14 13 11 9 8 7 7 6 7 8 8 8 7 8 9 8 8 8 8 8 10 11 11 11 12 13 15 16 17 17 18 18 19
23 23 23 24 24 25 25 25 24 24 24 25 26 27 29 30 30 30 30 30 30 30 30 29 29 29 30 30 30 30 28 26 26 26 26 27 27 26 25 25 27 28 27 25 24 23 20 19 18 16 16 15 13 11 10 9 8 7 7 7 6 8 9 9 9 9 9 9 8 8 8 9 10 11 11 13 14 15 15 15 15 16 16 17 18
23 23 24 24 24 24 25 25 25 25 24 25 25 26 28 29 30 31 31 32 32 32 32 32 31 30 30 31 31 30 29 28 27 27 27 29 30 30 29 28 28 29 28 25 25 23 22 20 19 16 15 13 12 11 11 11 11 10 10 9 8 8 9 9 9 9 9 9 8 9 9 9 10 11 13 14 14 14 14 14 15 16 16 17 18
23 22 22 21 20 20 21 23 24 24 24 24 25 25 26 27 29 30 31 32 33 34 35 35 34 33 32 32 32 31 30 28 27 26 26 27 29 31 32 31 31 31 29 27 25 24 22 21 18 16 13 12 11 11 11 11 12 12 11 10 9 9 9 9 10 10 9 7 7 8 8 9 10 11 11 11 11 12 13 14 14 15 15 15 16
18 17 16 15 15 15 17 17 18 19 19 18 18 19 19 21 22 24 26 29 31 33 35 36 37 36 35 34 33 33 32 31 29 26 24 24 26 29 31 33 32 32 29 26 24 23 22 20 18 16 13 11 9 9 9 9 11 12 12 11 10 10 10 10 10 9 7 6 7 7 8 9 10 9 9 9 10 12 12 13 12 12 12 13 15
14 13 13 13 12 12 12 12 13 14 15 16 17 18 18 18 19 19 21 23 26 29 32 35 37 38 38 36 34 33 33 32 31 29 26 23 23 26 30 32 33 32 30 28 26 23 21 20 19 17 14 11 9 9 9 9 12 13 13 12 11 11 11 11 10 8 7 7 7 8 9 9 8 8 8 9 10 10 10 10 10 10 12 13 16
13 13 13 13 12 11 12 13 14 16 17 18 20 21 21 21 21 21 22 23 24 26 28 31 34 37 39 37 34 33 32 31 31 30 28 25 23 24 27 30 32 33 32 30 28 24 21 20 19 17 14 12 11 10 10 11 13 14 14 13 13 12 11 10 8 7 7 7 8 9 9 7 6 7 8 8 8 7 7 7 8 10 13 15 17
Wind_Direction
211 212 213 208 207 197 183 188 194 194 193 188 184 184 185 185 184 186 185 183 181 176 172 169 156 137 127 110 91 84 83 90 96 97 96 333 318 333 342 349 3 21 26 19 18 14 337 291 273 259 247 239 238 238 240 243 236 228 231 225 228 235 228 228 232 235 241 246 250 253 245 238 234 230 230 229 229 236 244 254 267 268 258 251 248
213 212 214 212 210 203 191 195 203 201 197 193 187 186 189 189 187 187 186 183 176 168 167 158 142 133 121 86 72 80 79 80 76 66 59 32 25 32 34 32 31 36 34 21 13 11 5 345 325 298 271 257 249 243 243 246 232 223 231 224 219 226 225 223 226 229 231 231 234 242 243 239 236 236 240 242 240 245 252 254 259 265 266 264 256
214 213 214 214 213 209 201 201 207 207 204 199 191 190 195 192 189 191 190 185 174 166 164 154 153 161 137 60 49 67 66 65 62 55 56 53 47 49 48 42 36 31 22 14 10 4 360 354 345 335 312 276 246 234 235 239 227 218 222 219 215 223 226 223 224 226 225 227 232 233 235 239 239 239 243 249 252 253 253 253 253 255 258 259 258
216 215 216 215 214 212 208 205 207 208 208 206 199 197 200 195 192 194 194 191 184 174 172 168 173 181 161 56 40 53 59 61 60 59 61 61 55 56 56 49 44 38 26 15 4 347 332 316 304 326 345 8 127 184 218 237 237 224 217 216 215 222 227 224 223 226 225 225 227 230 233 235 236 235 238 245 249 251 252 252 253 254 256 255 256
219 219 218 217 216 213 210 207 207 208 209 209 207 205 204 199 198 198 197 197 195 191 189 184 181 187 162 48 49 54 61 60 53 50 52 49 44 49 62 70 70 67 56 40 25 6 346 316 270 262 310 49 89 113 147 206 239 236 223 217 213 221 225 223 224 225 224 225 226 230 233 233 238 232 223 232 237 237 242 248 251 253 254 253 252
221 222 221 221 220 214 210 208 209 209 209 209 210 212 211 206 205 203 200 202 203 204 205 196 188 189 66 60 72 72 67 60 50 40 37 35 33 41 57 69 73 71 67 62 60 54 45 48 69 127 148 106 110 130 143 155 176 194 208 208 211 220 221 220 225 224 222 226 229 229 229 230 238 227 203 209 221 223 227 234 240 243 244 246 246
220 221 223 226 225 218 211 209 211 213 211 211 210 213 215 213 212 208 204 205 207 210 212 200 186 178 140 110 98 84 75 65 55 40 30 26 26 38 55 65 68 66 67 73 80 79 71 73 85 93 99 104 110 116 125 129 124 108 86 103 180 209 209 210 217 220 222 226 230 232 233 233 230 221 194 188 204 205 212 222 226 233 238 240 239
219 218 220 227 228 221 214 211 214 216 216 215 212 208 213 218 217 211 207 208 211 214 214 203 190 176 165 161 108 82 76 66 57 42 29 24 26 36 54 67 68 67 74 85 87 81 73 76 91 97 95 102 108 105 104 104 100 87 58 52 71 125 164 184 197 210 220 225 228 227 231 237 234 224 199 185 184 159 154 191 196 209 240 231 230
219 217 217 225 231 224 217 216 219 221 220 219 215 211 217 223 217 209 206 208 211 215 213 208 195 174 172 194 132 84 75 63 55 43 30 29 32 32 45 63 66 72 85 94 90 82 78 81 96 109 108 108 108 88 65 39 10 351 2 35 70 107 129 138 155 179 192 208 221 216 219 230 220 196 167 164 164 144 140 141 114 109 149 141 168
228 227 223 226 233 230 221 221 224 227 226 222 218 217 221 221 210 203 202 203 206 210 213 211 195 171 176 202 170 98 77 59 49 43 34 32 38 41 47 56 66 80 93 98 93 86 77 70 78 110 134 150 157 355 339 318 310 305 167 139 123 118 126 133 138 140 134 141 176 188 199 212 197 171 148 147 153 145 139 131 116 119 119 97 98
229 231 229 227 232 233 228 226 227 228 228 225 220 218 220 215 206 199 197 198 203 208 214 212 193 175 179 193 162 112 87 68 55 48 41 41 49 54 56 59 70 87 98 99 94 82 70 63 67 88 111 116 100 71 56 47 64 132 140 133 125 120 122 126 131 128 120 119 126 139 152 164 170 166 156 150 152 149 140 129 119 115 109 98 97
223 225 226 225 227 229 230 230 229 228 228 229 225 221 219 212 204 200 196 198 206 214 218 210 196 183 182 181 151 123 103 89 75 61 59 62 63 65 68 69 74 89 100 100 93 83 77 77 79 84 91 92 89 81 76 77 85 97 102 104 109 114 117 121 127 125 118 114 115 121 126 124 133 145 144 142 149 156 150 136 124 115 107 100 95
217 217 220 222 222 225 228 228 231 232 232 235 228 215 210 203 196 199 203 208 216 224 225 211 200 191 188 187 161 130 112 103 97 83 81 81 80 80 81 79 78 90 103 103 98 91 87 87 86 87 89 86 85 84 82 85 87 88 90 94 99 101 102 105 108 108 106 107 109 113 115 112 120 132 132 139 152 163 164 150 135 125 118 111 103
199 199 202 207 211 221 224 225 231 233 236 238 222 207 207 200 199 213 221 230 232 233 231 215 204 199 197 198 180 142 117 114 126 112 100 97 93 93 92 89 85 90 104 109 106 101 96 94 92 90 89 87 86 87 88 89 89 90 90 91 94 95 94 94 92 92 95 97 97 97 101 104 110 113 114 127 140 153 169 167 151 137 127 121 114
176 176 180 184 186 203 226 235 234 230 239 234 183 187 210 205 211 229 244 252 244 237 232 219 210 209 210 210 196 172 144 139 157 144 124 117 110 106 102 98 94 94 104 113 113 109 104 100 98 94 88 87 88 88 89 89 89 90 91 92 95 95 95 95 96 96 97 96 94 93 98 101 102 103 105 112 121 135 161 174 167 149 135 128 120
160 168 176 178 175 170 245 256 245 235 239 203 135 169 220 211 214 228 241 243 235 233 232 223 219 221 221 218 206 189 168 163 175 168 151 141 126 117 112 108 106 104 106 112 113 112 108 102 100 93 83 81 84 85 85 85 87 89 91 95 98 98 98 99 100 99 99 98 97 97 100 102 101 102 105 111 117 123 140 163 173 166 150 140 132
163 168 166 166 171 167 199 248 253 250 245 192 147 214 227 216 221 220 215 215 213 219 224 224 229 234 231 226 216 200 182 177 180 177 170 157 133 115 114 117 118 115 111 112 111 108 102 95 89 82 75 73 72 75 77 78 80 83 88 96 99 99 100 101 100 98 98 99 98 99 101 104 104 104 106 108 113 117 123 140 162 173 168 157 147
154 151 146 156 175 165 178 239 268 280 270 240 233 238 219 220 226 215 213 220 210 212 219 226 236 240 239 241 234 217 197 186 183 181 177 162 136 108 102 121 137 135 123 117 114 107 103 96 88 83 77 74 71 70 72 75 76 76 79 87 94 96 97 99 100 98 96 94 94 97 98 99 100 100 102 103 104 108 113 121 140 159 166 171 166
143 139 137 146 157 149 159 274 306 296 269 241 238 243 232 228 220 211 217 227 219 220 223 229 237 241 242 244 239 224 207 195 188 184 181 171 156 138 144 176 174 157 139 132 128 121 120 118 112 107 100 93 86 77 71 72 77 78 76 75 81 89 91 94 97 97 96 92 88 89 91 93 95 94 95 98 98 101 104 107 113 125 146 171 184
137 135 132 135 138 139 145 272 308 297 264 233 237 250 247 230 215 214 223 224 217 219 221 228 237 242 242 239 234 223 210 203 194 188 187 188 183 172 177 190 187 176 166 157 151 145 138 133 132 130 124 117 104 90 79 68 66 67 67 64 60 71 79 80 86 92 95 91 82 78 83 88 93 94 95 97 98 99 100 102 104 106 119 142 164
138 136 138 140 143 148 155 203 274 283 265 235 238 249 248 232 208 205 215 216 212 214 220 229 237 241 241 239 235 224 213 207 199 193 193 198 196 189 194 199 193 190 188 178 173 168 155 150 150 147 138 133 119 105 95 79 70 57 50 48 36 34 45 53 62 71 80 86 81 77 81 87 93 96 98 99 98 96 93 93 95 95 99 108 118
139 134 134 137 143 154 170 205 243 257 250 230 227 226 204 168 170 183 195 201 207 215 222 229 234 238 239 239 237 226 215 209 203 200 200 203 203 198 200 202 198 197 197 190 187 179 169 168 167 166 165 157 153 150 142 130 125 109 89 79 52 34 22 21 38 40 26 46 62 70 92 107 107 103 104 105 100 94 89 85 83 81 79 78 84
127 120 117 118 120 121 127 138 150 145 138 148 153 142 130 135 158 176 180 182 191 205 213 219 227 234 238 238 233 223 215 210 205 204 206 208 206 197 196 203 201 201 202 195 191 187 181 182 186 194 198 194 191 187 182 190 198 190 174 161 148 112 50 5 356 360 341 324 348 360 317 194 159 132 123 121 110 101 92 83 74 64 55 46 45
113 110 108 107 106 104 107 110 109 109 110 115 118 117 119 130 147 160 165 171 180 193 202 208 218 229 237 238 229 219 216 215 211 209 210 211 206 201 202 205 205 208 209 203 198 198 198 200 210 225 233 232 228 245 268 266 251 234 223 211 189 172 164 209 302 301 283 257 284 321 310 255 209 192 174 154 127 105 86 67 48 32 26 24 23
117 116 113 110 107 104 105 107 106 104 102 101 100 102 110 122 137 152 163 170 181 196 205 208 212 220 229 234 229 220 220 223 220 219 220 217 212 210 208 205 208 214 217 216 213 208 209 217 230 240 248 250 254 272 279 272 265 255 249 255 255 234 208 206 233 262 267 261 248 229 234 235 223 224 217 209 197 148 94 29 13 14 19 19 18
117 116 115 113 109 108 110 112 111 108 106 102 99 102 108 117 130 148 160 171 192 210 218 220 219 218 220 224 227 225 227 232 232 233 235 229 220 217 216 215 217 220 223 227 225 222 227 239 245 247 248 249 252 261 271 273 272 270 270 274 272 262 250 240 239 247 253 258 255 243 231 222 221 235 237 237 245 241 242 274 306 334 351 350 345
103 104 107 107 104 103 106 111 115 115 119 121 120 121 120 117 115 116 128 155 187 205 213 219 221 221 217 216 221 226 230 236 239 241 240 230 220 219 225 228 228 226 227 228 228 231 238 243 247 251 253 254 256 259 268 278 280 279 281 279 268 257 256 260 260 258 256 257 261 261 255 242 235 246 252 242 241 249 254 257 260 269 287 299 306
85 86 90 93 93 91 91 97 104 107 114 118 117 120 119 116 111 102 98 100 108 154 195 203 211 215 210 208 213 221 228 234 235 233 230 224 221 223 228 232 233 233 233 232 234 240 243 241 242 246 249 253 259 263 268 274 277 279 280 277 268 259 257 260 265 267 266 265 266 267 266 261 256 260 260 248 240 243 247 247 251 261 269 275 284
74 73 76 79 81 81 80 84 88 89 92 96 99 104 107 107 107 100 97 99 101 107 123 163 205 212 201 201 207 216 229 236 228 221 221 223 225 227 229 232 235 238 240 242 245 246 244 243 245 249 250 252 259 266 268 265 266 272 275 270 263 258 258 263 270 272 269 265 262 263 267 268 264 261 261 262 262 261 256 253 255 260 264 270 279
74 73 73 74 73 72 71 74 78 76 74 74 75 79 83 88 91 89 89 94 96 92 89 92 87 58 198 204 206 213 225 233 228 226 229 231 232 231 232 234 236 238 241 244 246 243 243 249 254 257 255 253 257 263 263 260 263 269 269 265 263 264 268 273 277 275 270 265 262 261 262 261 259 258 260 267 274 275 272 270 267 264 268 275 282
78 77 78 79 78 76 73 71 70 67 66 68 67 66 67 71 75 76 79 84 88 89 86 86 90 81 75 173 215 229 234 237 238 237 237 237 235 234 235 237 239 242 243 242 242 243 246 251 255 256 255 252 253 254 254 256 261 263 263 265 270 273 276 278 278 276 274 271 266 263 260 257 256 257 258 262 266 268 271 274 272 270 272 277 279
79 79 80 80 79 78 76 74 72 68 66 67 69 73 77 77 76 76 77 79 81 83 84 81 80 86 209 215 222 232 239 243 243 241 239 239 238 236 236 237 240 243 244 241 242 247 250 253 254 254 250 246 245 246 246 248 250 251 255 264 272 275 276 276 275 272 271 268 265 262 260 260 259 260 260 261 261 261 262 266 272 273 272 271 274
76 76 76 76 74 73 73 73 72 68 63 59 58 69 80 83 86 88 87 87 85 85 90 94 91 98 251 245 240 241 245 248 245 239 235 234 235 235 235 234 236 238 239 239 239 242 244 246 249 246 235 229 231 234 234 233 234 238 247 256 262 266 267 267 267 268 268 267 266 264 264 265 264 264 265 265 264 262 259 261 267 270 267 268 272
73 73 74 74 72 73 74 75 75 72 67 63 56 55 61 67 78 86 88 90 88 88 99 109 118 139 178 219 242 253 259 260 253 243 236 234 236 239 238 234 230 229 232 233 231 228 228 228 225 214 203 204 212 219 220 221 226 235 246 254 259 262 264 265 265 266 267 267 267 266 266 267 266 264 264 264 266 266 260 258 261 262 263 268 275
71 72 74 72 69 69 70 71 69 66 69 74 66 49 34 25 31 48 56 68 80 100 132 155 159 153 156 176 195 225 265 268 264 254 243 237 238 239 239 234 224 215 218 220 214 209 206 199 193 194 199 207 217 222 222 227 234 242 250 256 259 263 269 275 275 275 274 271 269 268 266 266 266 265 263 263 264 263 258 255 257 258 262 269 276
66 67 68 67 62 55 52 49 42 33 25 12 359 351 348 343 325 296 291 293 289 272 253 250 247 239 239 240 231 220 216 223 231 231 226 231 235 231 227 222 206 192 194 197 196 198 198 194 196 208 223 233 237 237 235 236 238 240 244 249 255 266 286 298 302 303 300 292 282 275 270 267 268 267 264 263 261 257 253 252 253 256 262 270 276
58 60 60 61 58 51 46 41 34 26 17 9 357 336 321 314 303 293 292 296 297 294 285 277 272 265 262 267 262 247 240 238 241 242 236 229 227 220 209 203 199 200 207 213 216 218 219 219 222 229 237 241 242 241 239 238 236 235 239 245 254 268 287 303 311 315 317 315 306 291 279 272 269 264 259 255 251 247 246 248 251 256 264 273 281
38 37 35 33 30 23 17 12 8 1 356 354 350 342 330 318 305 293 286 286 288 291 292 287 280 269 261 262 264 263 261 253 243 238 234 224 212 203 200 203 212 221 226 226 227 229 227 225 226 230 232 234 236 237 237 237 237 239 244 248 254 264 276 290 302 310 317 319 314 299 279 265 259 255 249 237 223 224 235 243 250 259 270 281 292
11 4 357 352 348 343 339 335 329 323 320 319 320 323 323 320 315 307 298 290 282 279 281 280 274 265 255 252 251 247 246 242 228 217 218 222 218 211 210 213 212 209 209 210 210 210 210 212 216 220 224 229 235 244 249 251 252 251 250 250 252 257 263 272 285 299 308 312 313 307 283 264 257 250 246 231 213 217 231 242 253 266 278 288 297
348 340 336 333 328 324 321 318 315 311 308 305 301 299 298 299 300 302 304 298 288 282 279 271 261 248 235 231 230 222 217 219 218 215 218 225 227 223 221 218 208 203 207 214 214 211 214 224 235 245 255 264 269 274 275 274 272 267 260 254 251 252 256 260 266 281 297 307 316 326 330 320 309 280 256 244 231 230 240 253 264 273 280 287 294
330 325 322 319 315 314 313 311 310 308 304 302 299 296 294 291 288 288 292 291 288 285 280 272 260 246 236 233 230 222 213 210 215 220 223 224 224 223 226 225 219 219 224 227 227 227 232 243 257 268 276 280 282 283 283 283 283 278 270 259 252 251 253 253 255 269 289 302 317 337 351 344 329 305 275 263 257 257 264 271 275 277 280 288 294
317 315 313 311 308 306 305 303 302 302 300 298 296 294 293 291 289 287 286 283 281 279 277 273 267 258 251 246 242 239 236 233 235 237 235 232 226 225 229 231 228 227 230 232 233 238 247 259 273 283 287 289 290 291 292 294 294 289 277 261 252 248 245 244 250 264 278 291 309 322 322 312 301 295 285 277 275 277 278 281 283 284 287 293 298
313 311 309 308 306 303 300 299 299 299 298 297 294 292 291 289 288 288 285 282 279 276 274 272 270 266 262 256 251 249 247 247 248 249 247 244 240 238 242 244 242 239 239 242 247 253 258 265 274 281 285 287 290 292 295 298 299 295 281 261 249 243 236 233 239 254 266 277 287 293 294 293 290 288 285 279 276 277 279 282 286 289 292 296 297
310 308 307 306 304 301 299 298 297 296 296 295 294 292 289 287 286 286 284 281 279 277 274 271 268 266 265 262 258 255 251 249 249 248 246 244 243 243 246 245 243 242 242 244 249 253 255 259 263 268 272 277 282 287 291 293 294 290 277 260 247 240 234 228 230 250 263 266 270 275 277 278 283 287 289 288 286 285 286 286 287 288 292 296 298
308 307 306 304 302 301 300 298 296 294 292 290 289 287 285 284 283 282 281 279 277 275 272 269 266 263 262 261 260 258 255 251 246 241 238 237 238 240 241 240 239 239 238 238 240 242 247 251 255 258 263 269 273 274 274 277 278 276 270 260 245 234 231 228 233 249 256 254 255 258 259 265 277 287 294 296 294 291 290 290 291 293 297 301 304
311 310 309 307 305 304 303 301 298 295 291 288 285 282 281 280 279 277 276 276 275 273 271 267 263 260 258 258 258 257 255 253 249 244 239 236 235 236 237 237 237 235 231 230 231 233 237 242 245 248 253 256 256 254 254 257 261 265 267 267 252 233 227 229 236 246 249 248 250 251 253 263 278 288 292 291 288 288 291 294 299 303 306 309 311
315 315 314 313 312 310 309 307 304 301 298 293 289 285 282 280 279 276 274 272 270 270 269 268 265 260 256 253 253 253 252 250 249 248 245 241 237 235 233 233 235 234 229 228 231 232 232 233 234 237 241 243 243 246 251 253 254 256 258 260 254 239 229 229 237 245 247 249 254 258 263 272 280 283 284 284 285 291 299 306 312 315 316 317 317
319 319 319 318 318 316 314 313 310 309 307 302 297 293 288 284 281 277 274 272 269 267 266 266 266 264 260 255 252 250 249 247 246 246 246 245 241 236 231 230 232 234 232 229 229 230 229 229 231 233 234 237 245 255 262 261 253 248 248 250 249 238 228 230 239 244 244 243 249 260 271 279 282 279 279 284 293 303 312 317 320 320 320 320 322
325 325 325 324 321 319 317 316 317 320 320 318 315 312 307 301 293 285 278 272 268 265 263 262 262 262 261 258 254 250 248 246 245 243 243 244 241 236 231 227 227 230 231 230 230 231 231 233 234 231 228 234 250 265 269 257 242 236 238 241 240 232 228 231 238 241 239 243 256 269 278 281 280 280 286 299 310 316 320 321 322 323 326 331 334
337 336 334 332 332 332 331 334 340 343 344 346 347 346 341 332 321 309 297 286 277 270 263 259 257 257 257 256 254 251 248 246 244 243 241 240 237 234 231 228 227 228 228 226 227 229 230 231 231 227 225 233 250 263 261 244 229 228 232 233 231 229 229 229 230 234 246 263 275 277 274 272 276 287 301 310 315 319 322 324 328 335 341 344 345
347 347 345 345 351 354 352 350 350 347 345 345 346 346 342 333 324 316 308 300 293 284 275 266 260 255 253 252 252 251 248 247 246 244 241 239 236 232 229 227 227 228 226 223 221 219 216 217 221 223 226 233 242 250 253 242 229 227 230 231 230 230 229 224 225 244 269 278 273 265 262 268 283 298 306 310 314 318 323 331 342 350 353 352 350